SCP
2 2 2 2 2 2 2 2 3 3 3 4 4 3 3 3 3 2 2 2 2 2 2 2 2 2 2 2 1 1 1 1 1 1 0 0 0 0 0 0 0 0 0
2 2 2 2 2 2 2 2 3 3 3 4 4 4 4 3 3 3 3 3 2 2 2 2 2 2 2 2 1 1 1 1 1 1 0 0 0 0 0 0 0 0 0
2 2 2 2 2 2 2 2 3 3 3 4 4 4 4 4 4 4 3 3 3 3 2 2 2 2 2 2 2 1 1 1 1 1 1 1 0 0 0 0 0 0 0
1 1 1 2 2 2 2 2 2 3 3 4 4 4 4 4 4 4 4 3 3 3 2 2 2 2 2 2 2 1 1 1 1 1 1 1 1 0 0 0 0 0 0
1 1 1 1 1 1 1 2 2 3 3 3 4 4 4 4 4 4 4 3 3 3 2 2 2 2 2 2 2 1 1 1 1 1 1 1 1 0 0 0 0 0 0
0 0 0 1 1 1 1 1 2 2 2 3 3 3 3 3 3 3 3 3 3 3 3 2 2 2 2 2 1 1 1 1 1 1 1 1 1 0 0 0 0 0 0
0 0 0 0 0 0 1 1 1 2 2 2 2 3 3 3 3 3 3 3 3 3 3 2 2 2 2 1 1 1 1 1 1 1 0 0 0 0 0 0 0 0 0
0 0 0 0 0 0 0 1 1 1 1 2 2 2 3 3 3 3 3 3 3 3 2 2 2 2 1 1 1 1 1 0 0 0 0 0 0 0 0 0 0 0 0
0 0 0 0 0 0 0 0 1 1 1 1 2 2 2 2 3 3 3 3 2 2 2 2 1 1 1 1 1 0 0 0 0 0 0 0 0 0 0 0 0 0 0
0 0 0 0 0 0 0 0 0 1 1 1 1 1 1 2 2 2 2 2 2 1 1 1 1 1 1 0 0 0 0 0 0 0 0 0 0 0 0 0 0 0 0
0 0 0 0 0 0 0 0 0 0 1 1 1 1 1 1 1 1 1 1 1 1 0 0 0 0 0 0 0 0 0 0 0 0 0 0 0 0 0 0 0 0 0
0 0 0 0 0 0 0 0 0 0 0 0 0 0 1 1 1 1 1 0 0 0 0 0 0 0 0 0 0 0 0 0 0 0 0 0 0 0 0 0 0 0 0
0 0 0 0 0 0 0 0 0 0 0 0 0 0 0 0 0 0 0 0 0 0 0 0 0 0 0 0 0 0 0 0 0 0 0 0 0 0 0 0 0 0 0
0 0 0 0 0 0 0 0 0 0 0 0 0 0 0 0 0 0 0 0 0 0 0 0 0 0 0 0 0 0 0 0 0 0 0 0 0 0 0 0 0 0 0
0 0 0 0 0 0 0 0 0 0 0 0 0 0 0 0 0 0 0 0 0 0 0 0 0 0 0 0 0 0 0 0 0 0 0 0 0 0 0 0 0 0 0
0 0 0 0 0 0 0 0 0 0 0 0 0 0 0 0 0 0 0 0 0 0 0 0 0 0 0 0 0 0 0 0 0 0 0 0 0 0 0 0 0 0 0
0 0 0 0 0 0 0 0 0 0 0 0 0 0 0 0 0 0 0 0 0 0 0 0 0 0 0 0 0 0 0 0 0 0 0 0 0 0 0 0 0 0 0
0 0 0 0 0 0 0 0 0 0 0 0 0 0 0 0 0 0 0 0 0 0 0 0 0 0 0 0 0 0 0 0 0 0 0 0 0 0 0 0 0 0 0
0 0 0 0 0 0 0 0 0 0 0 0 0 0 0 0 0 0 0 0 0 0 0 0 0 0 0 0 0 0 0 0 0 0 0 0 0 0 0 0 0 0 0
0 0 0 0 0 0 0 0 0 0 0 0 0 0 0 0 0 0 0 0 0 0 0 0 0 0 0 0 0 0 0 0 0 0 0 0 0 0 0 0 0 0 0
0 0 0 0 0 0 0 0 0 0 0 0 0 0 0 0 0 0 0 0 0 0 0 0 0 0 0 0 0 0 0 0 0 0 0 0 0 0 0 0 0 0 0
0 0 0 0 0 0 0 0 0 0 0 0 0 0 0 0 0 0 0 0 0 0 0 0 0 0 0 0 0 0 0 0 0 0 0 0 0 0 0 0 0 0 0
0 0 0 0 0 0 0 0 0 0 0 0 0 0 0 0 0 0 0 0 0 0 0 0 0 0 0 0 0 0 0 0 0 0 0 0 0 0 0 0 0 0 0
1 1 0 0 0 0 0 0 0 0 0 0 0 0 0 0 0 0 0 0 0 0 0 0 0 0 0 0 0 0 0 0 0 0 0 0 0 0 0 0 0 0 0
1 1 1 0 0 0 0 0 0 0 0 0 0 0 0 0 0 0 0 0 0 0 0 0 0 0 0 0 0 -0 0 0 0 0 0 0 0 0 0 0 0 0 0
1 1 1 1 0 0 0 0 0 0 0 0 0 0 0 0 0 0 0 0 0 0 0 0 0 0 0 0 0 -0 -0 -0 -0 0 0 0 0 0 0 0 0 0 0
Wind_Speed
2 2 3 6 7 9 10 10 11 11 10 9 9 9 9 9 9 10 11 11 11 11 10 9 9 9 8 8 8 7 7 7 6 7 8 8 9 7 6 6 5 5 4
2 2 2 3 5 6 8 9 10 11 11 9 8 7 8 8 8 8 10 12 12 12 10 11 9 8 7 9 8 7 6 6 5 5 6 6 6 5 5 4 5 5 5
6 5 4 4 4 4 5 6 8 9 11 11 8 8 7 8 9 10 9 11 12 11 11 10 9 8 8 7 7 7 7 6 5 5 5 5 5 5 4 4 5 4 5
6 6 6 6 5 5 5 5 6 7 8 9 10 13 11 11 12 9 8 9 10 10 9 9 8 8 6 6 6 6 6 6 6 4 5 6 6 6 6 5 4 4 5
6 6 7 7 7 7 6 6 6 7 7 8 10 11 12 11 9 7 9 9 8 9 9 8 7 7 6 7 7 6 6 5 6 5 4 5 5 7 6 7 6 5 5
5 5 6 6 6 7 7 7 7 7 7 8 9 10 12 12 11 11 10 8 6 7 9 8 7 7 6 7 7 7 8 5 5 5 4 5 4 4 5 6 7 6 5
5 6 7 7 7 8 8 7 8 8 8 8 8 9 11 11 13 11 10 8 6 6 8 8 7 6 6 6 6 6 5 5 5 5 4 3 4 4 4 6 7 7 6
6 7 7 7 7 8 8 8 9 9 9 9 8 8 9 8 8 9 8 8 6 6 6 7 7 7 6 5 5 5 5 4 4 4 3 3 2 3 3 4 6 7 7
7 8 8 8 7 8 8 9 9 10 9 9 9 8 7 7 7 7 7 5 4 5 8 7 6 6 6 6 6 4 4 4 4 3 3 2 0 1 2 3 4 6 8
9 8 8 7 7 7 6 7 8 9 9 9 8 6 6 5 5 4 3 2 3 4 7 8 7 6 6 6 5 5 4 4 3 1 2 0 1 1 2 3 3 4 6
9 8 8 7 7 6 6 6 7 8 8 8 7 7 5 3 1 1 3 5 5 6 7 7 6 6 6 5 5 5 5 5 4 3 3 3 3 2 2 2 3 3 4
9 8 7 6 6 6 5 5 6 7 7 6 6 5 4 3 3 5 6 6 7 7 7 6 6 5 5 5 6 6 6 6 5 5 4 4 3 2 3 3 3 3 3
8 7 6 6 5 5 5 5 5 4 5 4 4 5 5 4 5 6 6 7 8 7 6 6 6 5 5 6 6 7 7 7 7 6 6 5 5 4 4 4 4 4 4
7 7 6 6 5 5 5 4 4 3 2 2 3 4 5 4 5 6 7 7 7 7 6 5 5 5 6 7 7 7 8 8 8 7 6 6 6 6 5 4 4 5 6
8 7 6 6 5 5 5 4 3 2 1 0 2 3 3 4 5 6 7 6 6 6 6 6 6 6 6 6 7 8 8 8 8 7 7 8 7 6 6 6 7 7 7
8 7 6 6 6 6 5 4 3 2 1 1 2 3 4 5 5 6 6 6 6 6 6 6 6 6 6 7 5 5 9 8 8 7 6 6 5 3 2 1 3 5 7
8 7 7 6 6 5 4 4 4 3 2 2 4 4 5 6 6 6 6 7 7 6 6 6 6 7 7 5 5 4 6 8 7 6 4 5 7 6 5 1 5 3 2
8 7 7 6 6 5 5 5 5 4 4 3 4 5 6 7 7 7 7 7 6 6 6 6 7 7 7 5 5 3 7 7 7 6 6 6 7 8 9 6 6 5 5
7 6 7 6 6 6 5 6 5 5 4 4 4 6 6 7 8 8 8 7 7 7 6 7 7 7 7 4 3 3 6 6 7 6 7 6 7 9 11 6 6 6 5
7 7 7 7 6 6 6 7 6 6 5 4 4 6 6 7 8 8 8 7 7 7 7 7 7 8 7 4 1 5 4 6 6 6 7 10 8 8 11 7 7 7 8
8 9 9 8 7 7 7 8 7 6 5 4 5 6 6 7 8 8 7 8 8 8 7 8 7 7 7 6 4 6 1 3 4 4 5 7 6 6 7 7 7 7 10
10 11 10 9 8 8 9 9 8 6 5 5 6 7 7 7 8 8 8 8 9 9 8 8 8 7 7 5 5 7 7 5 3 3 5 7 3 3 4 5 6 9 10
11 11 12 11 10 10 10 10 8 7 7 7 7 7 8 7 8 9 9 9 8 8 8 8 8 8 7 7 5 5 4 4 3 5 6 3 1 3 3 2 5 7 6
12 12 13 12 12 12 12 10 8 8 8 8 8 8 8 8 8 7 8 8 8 8 7 7 7 7 7 7 7 7 6 6 5 5 6 7 6 3 1 1 2 5 6
11 12 13 14 13 13 12 11 10 9 10 9 9 9 9 8 8 7 4 5 5 3 4 6 7 8 8 6 5 1 3 3 4 1 4 3 2 2 3 3 4 5 5
10 12 14 15 14 14 13 13 11 11 11 9 9 8 8 8 8 8 7 8 6 7 6 6 2 6 9 12 7 6 5 3 2 4 2 2 2 3 4 4 4 4 5
Wind_Direction
342 308 256 242 233 229 229 227 228 218 217 220 220 219 224 227 229 230 230 230 234 234 233 242 236 236 240 243 243 244 249 253 262 270 274 272 262 263 267 264 281 276 273
17 8 337 282 256 242 240 237 231 227 222 223 227 233 238 238 236 235 235 233 236 239 237 239 241 238 240 239 237 239 252 254 246 264 282 280 268 222 244 261 257 275 279
17 13 3 354 331 307 283 269 255 245 235 232 228 232 230 238 240 236 233 232 234 238 242 244 243 242 239 237 232 227 234 242 241 236 256 280 291 312 260 254 269 276 289
27 18 9 1 348 331 311 293 280 267 258 247 240 237 234 237 239 240 238 236 236 237 236 237 236 237 235 231 232 225 229 236 245 233 237 258 284 282 288 266 254 259 270
19 11 4 355 349 337 323 311 302 287 273 262 253 250 250 251 253 245 241 238 233 230 225 221 219 222 219 218 220 216 226 229 241 244 241 242 245 247 269 287 299 296 286
4 360 353 347 342 337 332 323 309 300 291 277 266 258 258 258 256 248 242 234 226 224 221 213 208 212 212 208 206 206 214 225 239 250 247 253 259 262 265 281 291 296 299
342 342 340 339 334 332 331 325 317 307 299 287 273 265 261 258 254 250 243 237 228 220 213 204 192 193 203 199 193 200 208 212 220 236 246 254 264 280 283 284 297 302 300
319 323 324 325 326 327 328 325 321 314 307 297 287 279 271 262 257 250 247 237 224 214 199 192 179 171 176 181 184 189 194 197 211 225 246 255 262 286 294 299 305 302 300
304 305 309 315 318 321 326 326 322 318 316 312 303 287 274 264 262 257 245 239 217 192 176 167 160 159 165 167 183 182 182 182 203 195 196 245 280 279 294 289 295 303 306
294 297 302 305 307 311 319 328 328 325 323 321 313 302 288 270 259 250 231 182 159 160 156 147 144 153 152 156 178 167 154 161 145 117 80 1 0 350 317 316 310 298 301
296 295 296 300 301 303 315 326 329 331 333 332 328 323 319 307 269 125 107 110 109 109 115 117 124 135 142 151 158 142 144 140 124 120 106 82 30 2 340 328 315 315 312
293 292 291 292 292 297 308 321 331 335 336 339 341 349 357 24 72 86 89 96 98 97 101 108 116 123 130 141 143 136 127 121 112 99 91 79 72 46 6 344 340 334 315
287 286 280 278 283 290 300 314 322 331 334 348 7 23 29 41 66 78 82 86 90 89 91 103 110 118 127 129 122 119 114 105 98 92 86 74 59 40 33 356 358 341 333
279 278 273 267 272 280 289 297 311 315 323 11 45 47 51 59 74 82 82 85 89 93 93 97 110 121 121 117 115 113 106 101 96 88 81 68 55 37 14 8 2 349 331
274 271 265 262 262 266 274 283 290 296 309 45 93 90 99 99 95 94 92 92 96 100 105 110 113 117 118 109 112 117 113 110 106 98 85 71 59 39 6 4 1 352 342
272 267 259 257 257 259 265 275 272 271 256 204 152 131 122 119 115 112 109 107 105 105 110 112 115 112 92 67 64 104 114 112 107 100 98 107 81 80 147 72 8 360 353
272 265 259 253 250 251 256 263 265 250 236 204 172 156 150 139 136 134 132 128 125 123 123 123 116 102 89 81 79 74 114 108 98 93 76 59 58 17 21 108 185 151 154
268 260 253 247 241 237 234 245 252 246 236 206 180 169 170 156 149 148 145 142 138 135 131 127 118 110 101 102 118 122 118 108 101 89 75 63 50 27 351 3 23 30 42
261 253 244 240 231 233 230 236 242 238 230 212 183 173 170 160 156 154 150 146 140 137 137 132 126 118 113 113 160 223 131 119 106 88 64 48 55 20 343 360 19 17 15
239 232 227 225 219 222 224 233 240 234 228 210 188 174 174 168 159 153 152 147 145 145 141 131 128 122 116 101 337 283 148 129 127 118 107 70 43 19 357 5 14 9 357
222 217 218 216 216 214 216 229 239 236 227 207 187 180 176 168 156 150 150 152 151 145 137 132 125 119 114 109 48 354 106 131 133 118 101 82 49 30 7 357 19 352 315
221 212 210 212 209 207 212 226 233 232 221 209 196 182 174 170 155 154 156 157 152 151 149 148 143 134 128 105 86 55 41 5 100 88 83 87 58 27 10 19 358 315 308
224 211 207 208 203 202 211 225 224 219 216 209 199 183 174 171 162 164 163 164 169 173 167 168 163 150 138 125 115 99 74 23 69 83 76 79 246 252 177 85 312 317 355
222 210 208 207 203 201 207 217 217 209 212 208 195 183 177 173 170 175 177 179 179 182 177 177 168 155 156 157 160 158 157 164 159 144 154 197 227 248 20 313 338 16 24
226 212 208 208 205 199 203 207 207 203 210 206 196 189 185 177 171 179 169 191 167 164 187 179 171 168 168 126 78 120 133 116 87 183 173 162 121 74 50 37 27 11 13
237 219 213 211 206 199 199 200 199 200 206 203 197 193 186 177 179 170 158 58 67 79 53 32 34 118 114 124 115 92 76 65 342 270 153 98 60 39 28 17 18 23 20